Find Starlink 5137

NORAD ID: 53975 Int'l Des: 2022-125 Owner: SPXS Country: US Constellation: starlink operational
LEOCIRCULAR

リアルタイム位置

3D地球を読み込み中...

Starlink 5137について

説明を読み込み中...

次回通過

Passes for default location (London). Set your location on the main map for personalized predictions.

高度履歴

Loading altitude history...

軌道要素

1 53975U 22125M 26122.90822257 .00000820 00000-0 69643-4 0 9991
2 53975 53.2181 335.3016 0001504 84.8259 275.2905 15.08836707197583
Epoch: May 2, 2026 • Age: 11 hours

現在のステータス

高度 540.0 km
速度 7.60 km/s
衛星直下点 23.51°N, 5.07°W
打ち上げ日 Oct 5, 2022
運用期間 3.5 years
タイプ internet

技術仕様

分類 Payload
質量 305.00 kg
乾燥質量 290.00 kg
総質量 305.00 kg
長さ 0.20 m
直径 2.80 m
スパン 9.00 m
形状 Box + pan
製造者 SPXS
バスタイプ Starlink
フェーズステータス In Orbit
所有者/国 SPXS/US

Most Searched